Location: Arrodets-la-Barthe
(43.0306°N, 0.2829°E)
Time: 13:16:49
(UTC+00:00)

ESTCUBE 1 - Pass Details

Date: 02 April 2023
Orbit: 640 x 654 km, 97.9° (Epoch: 29 May)

Event Time Altitude Azimuth Distance (km) Brightness Sun altitude
Exits shadow 22:58:30 11° 315° (NW) 2,000 ? -39.7°
Drops below altitude 10° 22:58:45 10° 317° (NW) 2,074 ? -39.7°
Sets 23:01:26 0° 333° (NNW) 2,990 ? -39.9°
